Weather History for Cortez, CO

Change the Weather History Date:

Sunday, April 20, 2014

  Actual Average Record
Temperature  
Mean Temperature 55 °F 48 °F  
Max Temperature 73 °F 66 °F 74 °F (2012)
Min Temperature 36 °F 31 °F 21 °F (2003)
Degree Days  
Heating Degree Days 10 17  
Month to date heating degree days 373 388  
Since 1 July heating degree days 5707 5918  
Cooling Degree Days 0 0  
Month to date cooling degree days 0 0  
Year to date cooling degree days 0 0  
Growing Degree Days 4 (Base 50)    
Moisture  
Dew Point 32 °F    
Average Humidity 55    
Maximum Humidity 92    
Minimum Humidity 17    
Precipitation  
Precipitation 0.00 in 0.04 in 0.03 in (2013)
Month to date precipitation 0.47 0.80  
Year to date precipitation 1.54 3.88  
Sea Level Pressure  
Sea Level Pressure 30.00 in    
Wind  
Wind Speed 9 mph (NE)    
Max Wind Speed 21 mph    
Max Gust Speed 29 mph    
Visibility 10 miles    
Events      
T = Trace of Precipitation, MM = Missing Value Source: NWS Daily Summary

Daily Weather History Graph

Daily Weather History Graph

Search for Another Location

Airport:

Trip Planner

Search our weather history database for the weather conditions in past years. The results will help you decide how hot, cold, wet, or windy it might be!

Date:

Astronomy

Apr. 20, 2014 Rise Set
Actual Time 6:33 AM MDT 7:54 PM MDT
Civil Twilight 6:05 AM MDT 8:21 PM MDT
Nautical Twilight 5:33 AM MDT 8:54 PM MDT
Astronomical Twilight 4:59 AM MDT 9:28 PM MDT
Moon 12:34 AM MDT (4/20) 10:59 AM MDT (4/20)
Length of Visible Light 14h 15m
Length of Day
13h 21m
Waning Gibbous, 68% of the Moon is Illuminated
Apr 20
Waning Gibbous
Apr 22
Last Quarter
Apr 29
New
May 6
First Quarter
May 14
Full

Hourly Weather History & Observations

Time (MDT) Temp. Windchill Dew Point Humidity Pressure Visibility Wind Dir Wind Speed Gust Speed Precip Events Conditions
12:53 AM 41.0 °F 37.1 °F 33.1 °F 73% 29.98 in 10.0 mi ENE 5.8 mph - N/A   Clear
1:53 AM 39.0 °F 34.8 °F 33.1 °F 79% 30.00 in 10.0 mi ENE 5.8 mph - N/A   Clear
2:53 AM 37.9 °F 33.5 °F 32.0 °F 79% 30.01 in 10.0 mi ESE 5.8 mph - N/A   Clear
3:53 AM 37.0 °F 32.4 °F 32.0 °F 82% 30.01 in 10.0 mi ESE 5.8 mph - N/A   Clear
4:53 AM 37.0 °F 32.4 °F 33.1 °F 86% 30.01 in 10.0 mi ENE 5.8 mph - N/A   Clear
5:53 AM 36.0 °F 29.0 °F 32.0 °F 86% 30.01 in 10.0 mi ENE 9.2 mph - N/A   Clear
6:53 AM 36.0 °F 29.6 °F 33.1 °F 89% 30.03 in 10.0 mi ENE 8.1 mph - N/A   Clear
7:53 AM 44.1 °F 39.0 °F 36.0 °F 73% 30.04 in 10.0 mi NE 9.2 mph - N/A   Clear
8:53 AM 54.0 °F - 37.9 °F 55% 30.04 in 10.0 mi NE 4.6 mph - N/A   Clear
9:53 AM 59.0 °F - 39.0 °F 48% 30.03 in 10.0 mi SSE 4.6 mph - N/A   Clear
10:53 AM 64.0 °F - 37.0 °F 37% 30.02 in 10.0 mi West 11.5 mph - N/A   Clear
11:53 AM 69.1 °F - 34.0 °F 27% 30.00 in 10.0 mi NNW 11.5 mph 21.9 mph N/A   Partly Cloudy
12:53 PM 69.1 °F - 32.0 °F 25% 29.99 in 10.0 mi NNW 15.0 mph 20.7 mph N/A   Scattered Clouds
1:53 PM 70.0 °F - 30.9 °F 24% 29.98 in 10.0 mi Variable 4.6 mph 25.3 mph N/A   Scattered Clouds
2:53 PM 70.0 °F - 27.0 °F 20% 29.97 in 10.0 mi NNW 10.4 mph 20.7 mph N/A   Mostly Cloudy
3:53 PM 71.1 °F - 27.0 °F 19% 29.95 in 10.0 mi NW 17.3 mph - N/A   Partly Cloudy
4:53 PM 71.1 °F - 25.0 °F 18% 29.96 in 10.0 mi NNW 15.0 mph 23.0 mph N/A   Clear
5:53 PM 72.0 °F - 28.9 °F 20% 29.95 in 10.0 mi NNW 10.4 mph 20.7 mph N/A   Mostly Cloudy
6:53 PM 69.1 °F - 28.9 °F 22% 29.96 in 10.0 mi NW 10.4 mph - N/A   Clear
7:53 PM 63.0 °F - 30.0 °F 29% 29.98 in 10.0 mi North 8.1 mph - N/A   Clear
8:53 PM 53.1 °F - 32.0 °F 45% 30.01 in 10.0 mi SE 4.6 mph - N/A   Clear
9:53 PM 53.1 °F - 32.0 °F 45% 30.02 in 10.0 mi East 8.1 mph - N/A   Clear
10:53 PM 45.0 °F 42.6 °F 30.9 °F 58% 30.05 in 10.0 mi NE 4.6 mph - N/A   Clear
11:53 PM 42.1 °F 37.7 °F 30.9 °F 65% 30.06 in 10.0 mi ENE 6.9 mph - N/A   Clear